User: anonymous   Login
Location: Unspecified
(0.0000°N, 0.0000°E)
Time: 10:09:38
(UTC+00:00)
Language:

Aussat K3 - Orbit

View from above orbital plane
View from above orbital plane
View from above satellite
View from above satellite

Ground track
Ground track

The orbit data is extracted from the following two-line orbital elements,

1 18350U 87078A   19018.51433997 +.00000028 +00000-0 +00000-0 0  9997
2 18350 014.8369 012.4902 0011496 310.8433 055.3713 00.98903534019275
Epoch (UTC): 18 January 2019 12:20:38
Eccentricity: 0.0011496
inclination: 14.8369°
perigee height: 36125 km
apogee height: 36223 km
right ascension of ascending node: 12.4902°
argument of perigee: 310.8433°
revolutions per day: 0.98903534
mean anomaly at epoch: 55.3713°
orbit number at epoch: 1927

The dashed part of the orbit path shows where the satellite is in the earth's shadow,  

DLR